FW8987 Weather Reports


time (UTC)temp
F
wind
direction
speed
knots
gust
knots
rain 1hr
in
rain 24hr
in
rain mn
in
humidity
%
barometer
mb
20260905203021 48 0.0 0.0 0.00 0.00 0.00 98 1006.2
20260905202016 48 0.0 0.0 0.00 0.00 0.00 98 1006.0
20260905201032 49 0.0 0.0 0.00 0.00 0.00 98 1006.0
20260905200028 49 0.0 0.0 0.00 0.00 0.00 98 1005.9
20260905195044 49 0.0 0.0 0.00 0.00 0.00 97 1005.8
20260905194019 49 0.0 0.0 0.00 0.00 0.00 97 1005.7
20260905193054 50 0.0 0.0 0.00 0.00 0.00 97 1005.7
20260905192030 49 195 0.0 0.9 0.00 0.00 0.00 97 1005.5
20260905191025 49 0.0 0.0 0.00 0.00 0.00 97 1005.4
20260905190041 49 0.0 0.0 0.00 0.00 0.00 96 1005.3
20260905185016 50 0.0 0.0 0.00 0.00 0.00 96 1005.2
20260905184031 51 0.0 0.0 0.00 0.00 0.00 96 1005.2
20260905183026 51 0.0 0.0 0.00 0.00 0.00 95 1004.9
20260905182021 51 0.0 0.0 0.00 0.00 0.00 95 1004.9
20260905181037 52 0.0 0.0 0.00 0.00 0.00 94 1004.8
20260905180032 52 0.0 0.0 0.00 0.00 0.00 93 1004.7
20260905175048 53 0.0 0.0 0.00 0.00 0.00 91 1004.4
20260905174043 54 0.0 0.0 0.00 0.00 0.00 89 1004.4
20260905173018 55 0.0 0.0 0.00 0.00 0.00 85 1004.2
20260905172034 56 0.0 0.0 0.00 0.00 0.00 83 1004.1
20260905171029 56 172 0.0 0.9 0.00 0.00 0.00 81 1004.0
20260905170024 57 165 0.0 1.7 0.00 0.00 0.00 81 1003.9
20260905165019 57 171 0.0 0.9 0.00 0.00 0.00 84 1003.8
20260905164034 57 174 0.0 0.9 0.00 0.00 0.00 84 1003.6
20260905163030 58 146 0.9 1.7 0.00 0.00 0.00 82 1003.5
20260905162026 58 154 0.9 2.6 0.00 0.00 0.00 80 1003.4
20260905161021 58 118 0.9 1.7 0.00 0.00 0.00 79 1003.2
20260905160016 58 95 1.7 3.5 0.00 0.00 0.00 78 1003.0
20260905155032 59 111 0.9 2.6 0.00 0.00 0.00 77 1003.0
20260905154027 59 145 0.9 1.7 0.00 0.00 0.00 78 1002.9
20260905153023 59 154 0.9 1.7 0.00 0.00 0.00 78 1002.8
20260905152018 59 140 0.9 1.7 0.00 0.00 0.00 77 1002.6
20260905151033 59 161 0.0 1.7 0.00 0.00 0.00 83 1002.5
20260905150049 58 150 0.9 1.7 0.00 0.00 0.00 82 1002.4
20260905145024 59 115 0.9 3.5 0.00 0.00 0.00 81 1002.4
20260905144020 60 120 1.7 3.5 0.00 0.00 0.00 80 1002.2
20260905143035 60 145 0.9 1.7 0.00 0.00 0.00 81 1002.2
20260905142030 60 109 1.7 3.5 0.00 0.00 0.00 81 1001.9
20260905141025 60 183 1.7 3.5 0.00 0.00 0.00 81 1002.0
20260905140022 59 138 0.9 2.6 0.00 0.00 0.00 83 1001.9
20260905135017 59 131 1.7 3.5 0.00 0.00 0.00 83 1001.8
20260905134033 60 93 2.6 7.8 0.00 0.00 0.00 80 1001.7
20260905133049 61 93 2.6 6.1 0.00 0.00 0.00 79 1001.5
20260905132022 59 116 1.7 3.5 0.00 0.00 0.00 79 1001.4
20260905131058 59 112 1.7 5.2 0.00 0.00 0.00 83 1001.3
20260905130033 58 135 0.9 2.6 0.00 0.00 0.00 85 1001.2
20260905125029 58 113 1.7 5.2 0.00 0.00 0.00 85 1001.1
20260905124044 58 102 2.6 5.2 0.00 0.00 0.00 83 1000.9
20260905123040 59 57 2.6 7.0 0.00 0.00 0.00 78 1000.9
20260905122035 60 70 2.6 8.7 0.00 0.00 0.00 74 1000.8
20260905121030 62 96 0.9 3.5 0.00 0.00 0.00 68 1000.6
20260905120105 62 142 0.0 1.7 0.00 0.00 0.00 68 1000.4
20260905115021 62 153 0.9 2.6 0.00 0.00 0.00 69 1000.2
20260905114016 62 131 0.9 2.6 0.00 0.00 0.00 70 1000.2
20260905113032 62 119 0.9 2.6 0.00 0.00 0.00 69 1000.2
20260905112027 61 143 0.9 2.6 0.00 0.00 0.00 69 1000.1
20260905111021 62 104 1.7 2.6 0.00 0.00 0.00 70 1000.1
20260905110037 61 147 0.9 3.5 0.00 0.00 0.00 68 999.9
20260905105032 61 129 0.9 2.6 0.00 0.00 0.00 66 999.9
20260905104048 61 91 1.7 5.2 0.00 0.00 0.00 64 999.8
20260905103023 61 142 1.7 6.1 0.00 0.00 0.00 61 999.7
20260905102019 62 88 1.7 3.5 0.00 0.00 0.00 62 999.6
20260905101035 62 175 0.9 2.6 0.00 0.00 0.00 65 999.6
20260905100029 61 39 0.9 5.2 0.00 0.00 0.00 65 999.4
20260905095024 60 147 0.9 1.7 0.00 0.00 0.00 72 999.4
20260905094020 60 121 0.9 3.5 0.00 0.00 0.00 75 999.3
20260905093016 59 0.0 0.0 0.00 0.00 0.00 79 999.1
20260905092032 58 175 0.9 0.9 0.00 0.00 0.00 80 999.2
20260905091047 57 173 0.9 1.7 0.00 0.00 0.00 83 999.2
20260905090023 56 0.0 0.0 0.00 0.00 0.00 86 999.1
20260905085019 55 0.0 0.0 0.00 0.00 0.00 87 999.0
20260905084034 55 196 0.0 0.9 0.00 0.00 0.00 88 999.0
20260905083030 54 205 0.0 1.7 0.00 0.00 0.00 89 998.9
20260905082046 54 204 0.9 1.7 0.00 0.00 0.00 90 998.7
20260905081021 54 205 0.9 1.7 0.00 0.00 0.00 89 998.7
20260905080016 54 209 0.9 2.6 0.00 0.00 0.00 89 998.7
20260905075032 53 225 1.7 3.5 0.00 0.00 0.00 89 998.6
20260905074027 53 223 1.7 3.5 0.00 0.00 0.00 89 998.7
20260905073023 53 233 1.7 2.6 0.00 0.00 0.00 89 998.6
20260905072018 52 228 1.7 2.6 0.00 0.00 0.00 90 998.6
20260905071033 52 217 1.7 2.6 0.00 0.00 0.00 90 998.5
20260905070048 52 232 1.7 3.5 0.00 0.00 0.00 90 998.4
20260905065024 52 245 2.6 5.2 0.00 0.00 0.00 91 998.2
20260905064019 52 238 2.6 5.2 0.00 0.00 0.00 91 998.1
20260905063034 51 220 0.9 2.6 0.00 0.00 0.00 93 998.1
20260905062030 50 218 0.0 1.7 0.00 0.00 0.00 94 998.1
20260905061026 49 212 0.9 1.7 0.00 0.00 0.00 95 997.9
20260905060041 49 220 0.9 2.6 0.00 0.00 0.00 95 997.9
20260905055016 49 229 0.0 1.7 0.00 0.00 0.00 96 997.9
20260905054032 48 198 0.9 1.7 0.00 0.00 0.00 98 997.8
20260905053027 47 0.0 0.0 0.00 0.00 0.00 99 997.6
20260905052042 46 0.0 0.0 0.00 0.00 0.00 99 997.7
20260905051017 46 0.0 0.0 0.00 0.00 0.00 99 997.6
20260905050054 45 0.0 0.0 0.00 0.00 0.00 99 997.6
20260905045048 44 0.0 0.0 0.00 0.00 0.00 99 997.6
20260905044023 44 204 0.0 0.9 0.00 0.00 0.00 99 997.6
20260905043038 44 0.0 0.0 0.00 0.00 0.00 99 997.6
20260905042033 44 0.0 0.0 0.00 0.00 0.00 99 997.4
20260905041029 43 0.0 0.0 0.00 0.00 0.00 99 997.6
20260905040024 43 0.0 0.0 0.00 0.00 0.00 99 997.6
20260905035039 44 0.0 0.0 0.00 0.00 0.00 99 997.5
20260905034034 44 217 0.0 0.9 0.00 0.00 0.00 99 997.4
20260905033030 44 198 0.0 0.9 0.00 0.00 0.00 99 997.5
20260905032025 44 0.0 0.0 0.00 0.00 0.00 99 997.3
20260905031021 44 0.0 0.0 0.00 0.00 0.00 99 997.2
20260905030036 44 203 0.0 0.9 0.00 0.00 0.00 99 997.3
20260905025031 44 0.0 0.0 0.00 0.00 0.00 99 997.3
20260905024026 45 197 0.0 0.9 0.00 0.00 0.00 99 997.2
20260905023022 45 198 0.0 0.9 0.00 0.00 0.00 99 997.2
20260905022017 45 227 0.9 2.6 0.00 0.00 0.00 99 997.2
20260905021032 45 0.0 0.0 0.00 0.00 0.00 99 997.0
20260905020027 45 210 0.0 1.7 0.00 0.00 0.00 99 997.0
20260905015043 45 202 0.0 0.9 0.00 0.00 0.00 99 996.9
20260905014018 46 213 0.0 1.7 0.00 0.00 0.00 99 996.9
20260905013033 46 205 0.0 1.7 0.00 0.00 0.00 99 996.8
20260905012048 46 201 0.0 0.9 0.00 0.00 0.00 99 997.0
20260905011023 46 220 0.9 1.7 0.00 0.00 0.00 99 996.9
20260905010018 45 209 0.0 0.9 0.00 0.00 0.00 99 996.8
20260905005035 45 209 0.0 0.9 0.00 0.00 0.00 99 996.8
20260905004030 45 0.0 0.0 0.00 0.00 0.00 99 996.8
20260905003025 45 0.0 0.0 0.00 0.00 0.00 99 996.7
20260905002020 46 219 0.9 1.7 0.00 0.00 0.00 99 996.9
20260905001015 46 207 0.9 1.7 0.00 0.00 0.00 99 996.8
20260905000031 46 210 0.9 1.7 0.00 0.00 0.00 99 996.8
20260904235026 46 190 0.0 1.7 0.00 0.00 0.00 99 996.8
20260904234042 46 210 0.0 1.7 0.00 0.00 0.00 99 996.8
20260904233037 46 211 0.0 1.7 0.00 0.00 0.00 99 996.8
20260904232032 46 221 0.9 1.7 0.00 0.00 0.00 99 996.9
20260904231027 46 216 0.0 1.7 0.00 0.00 0.00 99 996.8
20260904230043 46 211 0.9 1.7 0.00 0.00 0.00 99 996.8
20260904225138 47 223 0.0 0.9 0.00 0.00 0.00 99 996.8
20260904224034 47 206 0.0 0.9 0.00 0.00 0.00 99 996.9
20260904223029 47 206 0.0 0.9 0.00 0.00 0.00 99 996.9
20260904222025 47 219 0.9 2.6 0.00 0.00 0.00 99 996.9
20260904221019 47 218 0.0 0.9 0.00 0.00 0.00 99 996.8
20260904220055 46 0.0 0.0 0.00 0.00 0.00 99 996.9
20260904215030 46 0.0 0.0 0.00 0.00 0.00 99 997.0
20260904214025 46 0.0 0.0 0.00 0.00 0.00 99 996.8
20260904213021 47 0.0 0.0 0.00 0.00 0.00 99 997.0
20260904212016 47 0.0 0.0 0.00 0.00 0.00 99 996.9
20260904211033 47 0.0 0.0 0.00 0.00 0.00 98 996.9
20260904210128 48 0.0 0.0 0.00 0.00 0.00 98 997.0
20260904205022 48 0.0 0.0 0.00 0.00 0.00 98 996.9
20260904204019 48 0.0 0.0 0.00 0.00 0.00 98 997.1